Regional Weather Roundup
Issued by NWS

Home | Current Version | Previous Version | Text Only | Print | Product List | Glossary Off
Versions: 1 2 3 4 5 6 7 8 9 10 11 12 13 14 15 16 17 18 19 20 21 22 23 24 25 26 27 28 29 30 31 32 33 34 35 36 37 38 39 40 41 42 43 44 45 46 47 48 49 50

000
ASUS43 KLOT 300708
RWRIL

ILLINOIS REGIONAL WEATHER ROUNDUP
NATIONAL WEATHER SERVICE CHICAGO/ROMEOVILLE IL
200 AM CDT SAT JUL 30 2016

NOTE: "FAIR" INDICATES FEW OR NO CLOUDS BELOW 12,000 FEET WITH NO
SIGNIFICANT WEATHER AND/OR OBSTRUCTIONS TO VISIBILITY.

* THESE STATIONS ARE NOT UNDER NWS QUALITY CONTROL. THEY ALSO MAY NOT
  REPORT WEATHER SUCH AS PRECIPITATION OR FOG.

ILZ001-002-007-009-015-016-024-300800-
NORTHWEST ILLINOIS

CITY           SKY/WX    TMP DP  RH WIND       PRES   REMARKS
MOLINE         CLOUDY    71  66  84 E10       29.94F
STERLING*      MOCLDY    68  66  93 E6        29.96R
SAVANNA*       CLEAR     66  64  96 N3        29.96S
$$

ILZ003-004-008-010-011-017-018-300800-
NORTH CENTRAL ILLINOIS

CITY           SKY/WX    TMP DP  RH WIND       PRES   REMARKS
ROCKFORD       CLOUDY    69  65  86 NE5       29.97S
FREEPORT*      CLOUDY    64  63  96 CALM      29.99S
ROCHELLE*      PTCLDY    65  65  97 CALM      29.96S FOG
DE KALB*       MOCLDY    66  65  96 NE3       29.96F
$$

ILZ005-006-012>014-019>023-300800-
NORTHEAST ILLINOIS

CITY           SKY/WX    TMP DP  RH WIND       PRES   REMARKS
CHICAGO-OHARE  MOCLDY    71  66  84 VRB6      29.93F
CHICAGO-MIDWAY CLOUDY    73  65  75 E7        29.92F
AURORA         CLOUDY    69  66  90 NE7       29.94F
LANSING*       PTCLDY    69  65  88 CALM      29.93S
JOLIET*        MOCLDY    72  69  92 N6        29.93S
WAUKEGAN       CLOUDY    71  66  84 NE8       29.95S
DUPAGE AIRPORT CLEAR     66  64  93 N5        29.94F
KANKAKEE*      CLEAR     67  65  96 CALM      29.93S FOG
WHEELING       PTCLDY    71  65  81 NE3       29.95F
MORRIS*        CLOUDY    69  67  96 CALM      29.92F FOG
ROMEOVILLE*    CLEAR     69  65  86 NE6       29.93S
NORTHERLY ISL    N/A     73  66  78 NE9         N/A
$$

LMZ740>746-300800-
SOUTHERN LAKE MICHIGAN

STATION/POSITION SKY/WX   TEMP    WIND        PRES    VSBY  WAVE
                          AIR SEA DIR/SP/G                  HT/PER
                          (F)     (DEG/KT/KT) (MB)    (MI)  (FT/S)
SOUTHERN BUOY              68 74   70/ 17/ 19 1013.8F         3/ 5
WILMETTE HARBOR            72 71   90/ 12/ 16   N/A           4/ 5
HARRISON CRIB              74      80/ 16/ 17   N/A
BURNHAM HARBOR             73      50/  9/ 14   N/A
CALUMET HARBOR             73      50/  7/  9 1013.2F
BURNS HARBOR               70      80/  7/ 10 1013.9F
MICHIGAN CITY              69      60/  4/  5   N/A
MICHIGAN CITY 6N           70 76  110/  6/ 10   N/A           2/ 5
ST. JOSEPH                 69 72  100/  8/ 10 1013.3F         2
$$

ILZ025>027-034>036-040-047-049-050-058-095>099-300800-
WEST-CENTRAL ILLINOIS

CITY           SKY/WX    TMP DP  RH WIND       PRES   REMARKS
QUINCY         CLEAR     66  66 100 W5        29.95F
GALESBURG*     CLOUDY    68  67  97 N3        29.95S
MACOMB*        PTCLDY    64  64  98 CALM      29.97S
JACKSONVILLE*  CLEAR     65  64  96 W5        29.94F
PITTSFIELD*    CLEAR     67  65  94 W5        29.96F
$$

ILZ028>032-037-038-041>044-048-051>054-059>061-300800-
CENTRAL ILLINOIS

CITY           SKY/WX    TMP DP  RH WIND       PRES   REMARKS
BLOOMINGTON    PTCLDY    66  66 100 NE8       29.93F FOG
DECATUR        CLEAR     70  65  84 W6        29.93S
PEORIA         CLOUDY    71  69  93 VRB5      29.92F FOG
LACON*         MOCLDY    69  67  96 CALM      29.93S FOG
LINCOLN*       PTCLDY    68  67  95 CALM      29.93S
SPRINGFIELD    PTCLDY    68  65  90 W3        29.94S
TAYLORVILLE    CLEAR     64  64  99 MISG      29.95R
$$

ILZ033-039-045-046-055>057-062-063-300800-
EAST-CENTRAL ILLINOIS

CITY           SKY/WX    TMP DP  RH WIND       PRES   REMARKS
CHAMPAIGN      CLEAR     66  64  93 W3        29.92F
MATTOON        CLEAR     70  65  84 W6        29.92S
PARIS*         CLEAR     66  66 100 CALM      29.92S
$$

ILZ079-100>102-300800-
SOUTHWEST ILLINOIS

CITY           SKY/WX    TMP DP  RH WIND       PRES   REMARKS
ALTON          CLEAR     68  67  96 CALM      29.95S
BELLEVILLE     CLEAR     72  72 100 CALM      29.93F
CAHOKIA*       CLEAR     72  69  90 CALM      29.94F
SPARTA*        PTCLDY    70  69  98 CALM      29.96S
$$

ILZ064>066-069>071-074>076-080>082-084>086-088>090-092>094-300800-
SOUTH-CENTRAL ILLINOIS

CITY           SKY/WX    TMP DP  RH WIND       PRES   REMARKS
CARBONDALE     LGT RAIN  70  68  93 S3        29.95S
CAIRO*         CLOUDY    70  70 100 W3        29.95S
EFFINGHAM*     CLOUDY    70  70 100 CALM      29.94S
MARION         RAIN      73  70  88 SW8       29.97S
MT. VERNON     CLOUDY    73  68  83 SW3       29.95S
CENTRALIA*     PTCLDY    73  72  99 CALM      29.93S
SALEM*         PTCLDY    74  71  92 CALM      29.93F
METROPOLIS*    CLOUDY    72  71  97 W6        29.95F
$$

ILZ067-068-072-073-078-083-087-091-300800-
SOUTHEAST ILLINOIS

CITY           SKY/WX    TMP DP  RH WIND       PRES   REMARKS
LAWRENCEVILLE  CLOUDY    70  69  97 SW3         N/A
FLORA*         CLOUDY    72  70  96 SW3       29.93S
FAIRFIELD*     PTCLDY    73  73 100 CALM      29.92S FOG
HARRISBURG*    CLOUDY    74  73  96 W5        29.95S
ROBINSON*      CLEAR     67  66  99 CALM      29.92S
CARMI*         PTCLDY    73  73 100 SW6       29.93S
$$

ABBREVIATIONS USED IN REMARKS
   TC - TEMPERATURE IN CELSIUS
  WCI - WIND CHILL INDEX
   HX - HEAT INDEX
  VSB - VISIBILITY
$$




USA.gov is the U.S. government's official web portal to all federal, state and local government web resources and services.